SCP
0 0 0 0 0 0 0 0 0 0 0 0 0 0 0 0 0 0 0 0 1 1 0 0 0 0 0 1 1 1 1 1 0 0 0 0 0 0 0 0 0 0 0
0 0 0 0 0 0 0 0 0 0 0 0 0 0 0 0 0 0 0 0 0 0 0 0 0 0 0 1 1 1 1 1 0 0 0 0 0 0 0 0 0 0 0
0 0 0 0 0 0 0 0 0 0 0 0 0 0 0 0 0 0 0 0 0 0 0 0 0 0 0 0 0 0 0 0 0 0 0 0 0 0 0 0 0 0 0
0 0 0 0 0 0 0 0 0 0 0 0 0 0 0 0 0 0 0 0 0 0 0 0 0 0 0 0 0 0 0 0 0 0 0 0 0 0 0 0 0 0 0
0 0 0 0 0 0 0 0 0 0 0 0 0 0 0 0 0 0 0 0 0 0 0 0 0 0 0 0 0 0 0 0 0 0 0 0 0 0 0 0 0 0 0
0 0 0 0 0 0 0 0 0 0 0 0 0 0 0 0 0 0 0 0 0 0 0 0 0 0 0 0 0 0 0 0 0 0 0 0 0 0 0 0 0 0 0
0 0 0 0 0 0 0 0 0 0 0 0 0 0 0 0 0 0 0 0 0 0 0 0 0 0 0 0 0 0 0 0 0 0 0 0 0 0 0 0 0 0 0
0 0 0 0 0 0 0 0 0 0 0 0 0 0 0 0 0 0 0 0 0 0 0 0 0 0 0 0 0 0 0 0 0 0 0 0 0 0 0 0 0 0 0
0 0 0 0 0 0 0 0 0 0 0 0 0 0 0 0 0 0 0 0 0 0 0 0 0 0 0 0 0 0 0 0 0 0 0 0 0 0 0 0 0 0 0
0 0 0 0 0 0 0 0 0 0 0 0 0 0 0 0 0 0 0 0 0 0 0 0 0 0 0 0 0 0 0 0 0 0 0 0 0 0 0 0 0 0 0
0 0 0 0 0 0 0 0 0 0 0 0 0 0 0 0 0 0 0 0 0 0 0 0 0 0 0 0 0 0 0 0 0 0 0 0 0 0 0 0 0 0 0
0 0 0 0 0 0 0 0 0 0 0 0 0 0 0 0 0 0 0 0 0 0 0 0 0 0 0 0 0 0 0 0 0 0 0 0 1 0 0 0 0 0 0
0 0 0 0 0 0 0 0 0 0 0 0 0 0 0 0 0 0 0 0 0 0 0 0 0 0 0 0 0 0 0 0 0 0 0 0 0 0 0 0 1 1 1
0 0 0 0 0 0 0 0 0 0 0 0 0 0 0 0 0 0 0 0 0 0 0 0 0 0 0 0 0 0 0 0 0 0 0 0 0 0 0 0 0 1 1
0 0 0 0 0 0 0 0 0 0 0 0 0 0 0 0 0 0 0 0 0 0 0 0 0 0 0 0 0 0 0 0 0 0 0 0 0 0 0 0 0 0 0
0 0 0 0 0 0 0 0 0 0 0 0 0 0 0 0 0 0 0 0 0 0 0 0 0 0 0 0 0 0 0 0 0 0 0 0 0 0 0 0 0 0 0
0 0 0 0 0 0 0 0 0 0 0 0 0 0 0 0 0 0 0 0 0 0 0 0 0 0 0 0 0 0 0 0 0 0 0 0 0 0 0 0 0 0 0
0 0 0 0 0 0 0 0 0 0 0 0 0 0 0 0 0 0 0 0 0 0 0 0 0 0 0 0 0 0 0 0 0 0 0 0 0 0 0 0 0 0 0
0 0 0 0 0 0 0 0 0 0 0 0 0 0 0 0 0 0 0 0 0 0 0 0 0 0 0 0 0 0 0 0 0 0 0 0 0 0 0 0 0 0 0
0 0 0 0 0 0 0 0 0 0 0 0 0 0 0 0 0 0 0 0 0 0 0 0 0 0 0 0 0 0 0 0 0 0 0 0 0 0 0 0 0 0 0
0 0 0 0 0 0 0 0 0 0 0 0 0 0 0 0 0 0 0 0 0 0 0 0 0 0 0 0 0 0 0 0 0 0 0 0 0 0 0 0 0 0 0
0 0 0 0 0 0 0 0 0 0 0 0 0 0 0 0 0 0 0 0 0 0 0 0 0 0 0 0 0 0 0 0 0 0 0 0 0 0 0 0 0 0 0
0 0 0 0 0 0 0 0 0 0 0 0 0 0 0 0 0 0 0 0 0 0 0 0 0 0 0 0 0 0 0 0 0 0 0 0 0 0 0 0 0 0 0
0 0 0 0 0 0 0 0 0 0 0 0 0 0 0 0 0 0 0 0 0 0 0 0 0 0 0 0 0 0 0 0 0 0 0 0 0 0 0 0 0 0 0
0 0 0 0 0 0 0 0 0 0 0 0 0 0 0 0 0 0 0 0 0 0 0 0 0 0 0 0 0 0 0 0 0 0 0 0 0 0 0 0 0 0 0
0 0 0 0 0 0 0 0 0 0 0 0 0 0 0 0 0 0 0 0 0 0 0 0 0 0 0 0 0 0 0 0 0 0 0 0 0 0 0 0 0 0 0
Wind_Speed
4 4 3 2 2 2 2 3 3 2 4 5 7 6 5 5 6 4 5 14 14 14 12 11 11 11 11 11 11 11 11 10 7 5 5 5 5 6 5 3 5 6 6
6 5 4 3 3 2 2 2 4 2 2 4 6 6 5 5 5 5 5 9 15 16 16 15 14 14 13 13 13 13 12 11 9 6 5 5 5 6 5 4 5 6 6
6 5 4 4 5 4 4 2 4 2 3 4 5 5 5 4 4 5 5 5 8 13 17 18 17 16 16 15 15 14 13 11 10 7 5 3 4 5 6 5 5 5 7
7 7 5 5 5 5 6 4 3 2 2 4 3 3 4 3 4 4 4 4 4 5 10 16 17 18 18 17 16 15 13 12 10 8 6 4 2 4 7 7 6 5 5
9 9 7 5 6 6 6 6 4 2 3 4 4 3 4 3 3 3 4 4 4 4 4 11 15 16 17 17 17 16 14 12 12 10 7 5 3 2 5 6 6 6 4
9 7 7 7 6 6 6 7 6 3 3 4 5 3 3 4 4 3 3 3 3 4 4 5 6 8 15 17 17 17 15 15 14 13 10 5 2 3 6 6 5 5 5
6 6 5 6 6 6 8 9 6 5 2 2 4 3 4 4 4 3 3 3 4 4 5 5 4 4 6 12 15 17 17 15 15 14 12 8 4 3 6 7 7 6 5
7 9 9 7 8 7 7 8 5 4 2 3 4 4 2 2 3 3 2 4 4 4 5 5 5 5 4 4 10 17 18 19 17 14 12 9 7 3 4 7 8 8 6
6 9 9 8 8 8 8 7 6 5 5 3 4 5 5 4 2 1 2 2 4 5 5 4 5 5 5 5 7 11 15 15 15 13 10 10 8 5 1 5 9 9 8
9 7 8 7 6 7 8 8 8 5 6 5 2 1 3 5 4 3 1 1 3 4 4 4 4 4 5 5 6 10 13 14 16 17 15 12 9 6 4 3 5 6 7
5 5 6 7 6 5 4 4 6 6 4 6 5 3 2 2 2 5 3 2 2 2 2 3 3 3 3 3 3 7 12 13 14 15 17 15 12 9 8 2 5 8 8
1 2 4 2 5 5 3 3 3 5 6 4 4 4 5 4 4 4 4 4 3 1 2 2 3 3 3 3 5 9 12 12 13 14 15 17 16 15 15 12 2 8 7
2 2 2 2 5 5 4 4 4 6 6 5 5 4 4 4 4 4 5 4 3 1 2 1 1 3 3 3 4 8 10 12 11 12 15 18 19 19 18 20 7 7 4
3 4 2 2 4 6 4 6 6 6 5 6 7 6 4 5 4 5 6 7 4 1 1 2 1 2 3 3 5 8 6 11 10 10 14 15 16 17 18 21 19 17 17
5 8 5 3 5 5 8 7 6 6 6 5 5 5 4 4 4 5 7 9 8 5 5 3 2 3 3 3 6 4 4 8 9 8 9 11 11 12 12 13 16 18 20
5 6 5 4 6 8 9 8 5 6 6 5 4 5 4 4 4 4 7 8 6 6 4 4 3 4 4 4 6 5 5 8 8 8 8 9 9 10 9 11 12 12 12
3 5 4 4 7 7 6 5 6 7 7 6 6 6 6 6 6 5 5 5 5 4 4 3 2 4 5 5 5 4 4 3 3 7 7 7 9 9 9 10 11 11 10
5 5 7 8 10 8 6 6 6 7 9 8 8 6 6 6 7 6 6 7 5 5 5 4 3 4 3 5 5 4 2 2 2 5 6 6 9 10 10 11 11 11 11
4 5 4 8 9 8 8 8 7 6 7 8 7 8 8 8 7 7 6 6 6 4 4 5 5 4 3 4 4 3 2 1 0 4 5 4 5 8 9 10 11 12 14
1 5 4 4 6 8 9 7 6 7 7 7 7 8 8 8 8 9 8 8 7 7 6 6 6 7 4 4 4 3 2 1 0 3 2 3 4 3 5 6 9 11 12
5 5 5 5 5 5 6 7 7 7 6 6 6 7 8 11 13 12 9 8 8 8 7 6 6 5 5 6 6 4 3 2 1 1 1 3 3 3 3 4 6 10 11
4 4 4 4 4 4 7 11 9 7 6 6 6 6 6 10 11 13 14 14 14 14 11 8 6 8 8 7 5 5 4 3 1 2 2 0 1 1 2 1 4 8 10
2 2 3 3 3 4 5 9 10 7 7 6 6 5 4 3 4 7 12 15 16 18 18 12 10 9 10 12 10 7 5 4 3 3 4 1 0 1 1 2 6 8 9
3 3 3 3 2 3 5 8 12 7 6 6 6 5 4 3 4 6 7 7 7 8 9 7 8 9 8 10 12 9 7 5 3 2 3 3 2 1 1 2 6 9 8
4 3 3 3 4 4 4 4 6 3 5 5 4 5 7 5 7 8 6 5 6 6 6 6 5 8 11 14 12 10 8 6 2 2 3 3 3 2 0 1 4 7 8
4 3 4 4 5 4 4 5 7 3 3 3 3 4 8 9 12 13 9 7 8 8 7 6 8 9 10 14 18 14 11 9 5 3 6 5 3 4 1 2 2 3 4
Wind_Direction
167 180 189 185 197 194 147 104 64 51 125 108 100 105 91 74 61 45 41 55 57 62 63 61 60 64 67 66 64 65 68 69 81 97 114 124 132 136 124 105 104 95 90
166 174 187 190 194 201 110 139 101 123 105 103 103 110 103 85 75 55 44 52 54 57 59 59 59 62 66 69 69 69 67 64 67 79 102 122 130 142 144 127 110 105 96
173 151 184 191 184 172 145 140 115 150 111 101 102 113 111 107 104 82 59 53 46 49 54 54 53 58 64 66 68 66 64 61 57 60 78 113 138 146 151 145 128 113 96
164 146 169 188 176 158 145 146 125 125 113 107 102 112 109 124 128 108 85 68 56 41 46 53 46 44 51 56 63 62 60 59 56 59 67 62 115 160 153 144 135 121 98
166 155 168 179 168 159 145 150 124 126 122 117 119 116 107 107 125 122 111 96 84 66 41 54 48 46 46 46 48 51 53 56 56 55 63 61 83 151 160 149 147 152 151
169 153 160 165 159 146 137 141 128 121 132 141 115 86 76 83 95 105 106 87 81 74 55 39 32 34 43 41 40 40 41 47 44 40 44 55 83 176 181 168 167 169 170
180 140 151 151 148 147 151 134 115 117 102 114 99 67 33 35 56 68 87 90 86 86 69 50 35 22 23 31 38 34 30 42 42 33 30 38 44 178 183 183 182 182 170
165 146 150 153 150 151 137 117 112 127 134 181 127 114 72 14 12 30 72 101 99 95 79 63 48 33 18 11 30 33 27 29 29 19 11 32 35 78 177 196 200 195 180
134 134 144 144 152 155 150 150 149 167 143 191 180 140 150 186 167 35 34 77 109 98 92 79 62 39 26 19 23 25 30 24 21 15 17 46 38 51 150 209 217 204 193
135 145 144 138 144 152 164 174 165 165 146 161 196 127 125 154 147 138 63 34 77 105 112 95 80 58 43 26 25 36 37 30 21 17 22 29 28 46 86 136 181 194 203
120 147 143 143 150 143 149 176 170 167 162 167 170 143 121 115 136 132 151 157 76 76 110 108 103 83 57 44 22 32 39 33 30 27 24 25 35 64 64 71 181 178 182
46 59 89 142 154 143 154 182 202 193 192 179 183 165 158 167 178 148 146 155 135 124 120 119 118 101 70 45 40 37 38 33 33 34 34 26 39 52 39 29 160 181 189
156 75 63 191 200 176 162 163 196 213 199 184 192 199 181 191 161 140 134 139 117 133 133 165 149 114 95 68 47 41 40 38 36 37 42 33 44 47 37 24 58 115 107
155 139 226 252 223 180 175 191 193 208 194 189 192 195 192 201 178 150 148 143 121 130 161 161 117 124 118 98 74 52 36 44 39 39 48 45 49 49 36 33 50 62 60
170 152 167 228 249 217 196 191 192 204 195 198 203 189 188 197 186 168 160 164 148 155 195 177 149 152 136 111 94 71 43 50 45 42 48 53 61 64 49 45 47 53 62
156 132 126 190 215 221 198 183 200 203 198 205 213 209 198 183 186 175 171 177 154 135 163 172 170 139 141 125 110 85 62 46 48 48 48 44 61 82 67 57 52 46 58
160 132 132 258 245 236 223 195 199 194 198 206 215 208 209 175 183 188 174 177 159 132 121 144 123 122 134 142 112 94 78 51 31 53 56 48 52 69 74 67 54 44 56
167 184 167 228 257 251 239 215 201 191 201 206 212 200 213 188 184 190 180 184 166 143 125 129 134 145 154 151 140 129 99 72 30 58 57 53 49 57 64 68 60 49 55
161 228 183 215 232 234 228 212 199 200 206 207 196 194 212 200 182 181 187 184 175 145 119 146 145 152 137 146 132 102 79 30 51 80 58 50 52 57 65 70 74 68 62
271 273 266 245 236 234 231 210 191 207 209 207 197 197 209 206 196 186 188 180 163 143 134 147 144 158 158 153 144 139 152 205 56 56 38 36 42 54 88 90 94 88 78
243 255 252 241 244 238 228 212 195 189 201 202 203 204 207 209 206 190 184 170 149 137 138 145 150 155 171 168 172 170 160 164 88 103 27 12 21 8 25 83 105 105 98
233 230 231 237 255 253 239 215 188 180 195 205 217 221 216 217 212 196 187 176 168 155 151 160 168 179 185 176 161 168 145 137 181 186 123 53 39 31 350 20 138 129 119
197 236 247 238 256 270 256 226 204 183 192 207 215 200 170 180 177 190 189 180 179 175 171 168 172 184 184 187 167 165 168 157 177 168 121 126 206 159 250 247 168 151 143
205 232 246 262 272 276 264 225 212 200 181 193 196 170 163 153 124 112 123 152 168 177 179 167 177 189 188 175 175 167 158 139 83 101 126 157 183 162 159 255 203 172 161
203 215 225 237 256 268 258 199 160 154 146 171 187 179 156 163 181 153 132 141 165 179 183 167 179 189 167 165 157 133 140 150 143 176 189 154 155 115 81 250 246 199 178
221 219 233 225 243 257 233 200 147 144 153 158 161 194 178 176 175 169 173 173 189 197 184 176 178 190 176 172 175 172 165 166 148 181 197 172 154 130 179 251 236 232 196